Regional Weather Roundup
Issued by NWS

Home | Current Version | Previous Version | Graphics & Text | Print | Product List | Glossary On
Versions: 1 2 3 4 5 6 7 8 9 10 11 12 13 14 15 16 17 18 19 20 21 22 23 24 25 26 27 28 29 30 31 32 33 34 35 36 37 38 39 40 41 42 43 44 45 46 47 48 49 50
000
ASUS43 KMKX 122111
RWRWI

WISCONSIN REGIONAL WEATHER ROUNDUP
NATIONAL WEATHER SERVICE MILWAUKEE/SULLIVAN WI
300 PM CST FRI FEB 12 2016

NOTE: "FAIR" INDICATES FEW OR NO CLOUDS BELOW 12,000 FEET WITH NO
SIGNIFICANT WEATHER AND/OR OBSTRUCTIONS TO VISIBILITY.

WIZ001-002-006>008-014>016-023>028-122200-
NORTHWEST WISCONSIN

CITY           SKY/WX    TMP DP  RH WIND       PRES   REMARKS
SUPERIOR ARPT  SUNNY      5 -13  43 NW12G21   30.47R WCI -11
ASHLAND        CLOUDY     3 -10  54 NW14G23   30.40R WCI -15
HAYWARD        SUNNY      4 -15  41 NW10G18   30.37R WCI -11
SIREN          SUNNY      7 -15  35 NW15G24   30.44R WCI -11
CUMBERLAND     SUNNY      5 -15  39 NW20G25   30.37R WCI -15
RICE LAKE      SUNNY      7 -13  38 NW13G21   30.40R WCI  -9
CHETEK         SUNNY      7 -12  42 MISG      30.38R
LADYSMITH      SUNNY      6 -11  45 NW17G23   30.34R WCI -13
EAU CLAIRE     SUNNY      9 -12  38 NW14G26   30.38R WCI  -7
MENOMONIE      SUNNY     11 -12  35 NW18G24   30.40R WCI  -7
NEW RICHMOND   SUNNY      7 -10  45 NW18G31   30.43R WCI -12
OSCEOLA        SUNNY      8 -10  42 NW14G22   30.48R WCI  -8
$$

WIZ003>005-009-010-017-018-122200-
NORTH CENTRAL WISCONSIN

CITY           SKY/WX    TMP DP  RH WIND       PRES   REMARKS
MANITOWISH WTR CLOUDY    -1 -12  61 NW20G29   30.23R HAZE    WCI -23
ARBOR VITAE    PTSUNNY    1  -9  61 NW13G28   30.22R HAZE    WCI -16
WOODRUFF       PTSUNNY    1  -9  61 NW13G28   30.22R HAZE    WCI -16
RHINELANDER    CLOUDY     2 -11  54 NW16G30   30.19R WCI -18
EAGLE RIVER    LGT SNOW   0  -8  68 NW22G29   30.19R VSB 3/4 WCI -23
LAND O LAKES   LGT SNOW   1 -10  61 NW21G31   30.19R VSB 1   WCI -21
PHILLIPS       CLOUDY     2 -11  54 NW14G22   30.26R WCI -16
TOMAHAWK       CLOUDY     4 -13  46 NW13G23   30.23R WCI -13
MEDFORD        MOSUNNY    5  -8  53 NW17G30   30.23R HAZE    WCI -14
MERRILL        PTSUNNY    6 -10  45 N22G29    30.23R WCI -14
$$

WIZ029-030-035-036-043>047-122200-
CENTRAL WISCONSIN

CITY           SKY/WX    TMP DP  RH WIND       PRES   REMARKS
WAUSAU         MOSUNNY    9 -10  42 NW13G24   30.21R WCI  -7
MOSINEE        MOSUNNY    9  -8  47 NW23G31   30.22R WCI -12
MARSHFIELD     SUNNY      8  -8  48 NW22G31   30.23R WCI -12
STEVENS POINT  SUNNY      8 -11  41 NW17G28   30.22R WCI -10
WAUPACA        MOSUNNY   14  -9  34 NW21G30   30.22R WCI  -3
WAUTOMA        PTSUNNY   13  -7  40 NW24G31   30.24R WCI  -6
WISC RAPIDS    MOSUNNY   10  -8  44 NW18G30   30.26R WCI  -8
CAMP DOUGLAS   MOSUNNY   14  -6  41 NW20G28   30.27R WCI  -3
$$

WIZ011>013-019>022-031-037>040-048>050-122200-
NORTHEAST WISCONSIN

CITY           SKY/WX    TMP DP  RH WIND       PRES   REMARKS
ANTIGO         CLOUDY     3 -10  53 NW22G31   30.17R HAZE    WCI -19
SHAWANO        CLOUDY    13 -11  33 NW18G33   30.20R WCI  -4
OCONTO         CLOUDY    11  -1  58 N18G26    30.18R WCI  -7
STURGEON BAY   CLOUDY    12   1  62 N24G30    30.16R WCI  -8
GREEN BAY      PTSUNNY   12  -5  46 NW22G35   30.17R WCI  -7
MANITOWOC      CLOUDY    15   0  51 NW23      30.16R WCI  -3
APPLETON       PTSUNNY   12  -9  37 NW18G28   30.16R WCI  -5
CLINTONVILLE   MOSUNNY   14  -9  34 NW18G26   30.20R WCI  -3
OSHKOSH        PTSUNNY   13  -4  46 NW21G31   30.18R WCI  -5
$$

WIZ032>034-041-042-053>061-122200-
SOUTHWEST WISCONSIN

CITY           SKY/WX    TMP DP  RH WIND       PRES   REMARKS
LA CROSSE      SUNNY     13  -2  51 NW22      30.36R WCI  -6
SPARTA         SUNNY     14  -2  49 N16G24    30.32R WCI  -2
VIROQUA        SUNNY     12  -3  49 NW22G28   30.27R WCI  -7
BOSCOBEL       SUNNY     19  -1  41 NW17G23   30.31R WCI   4
PRAIRIE DU CHI SUNNY     16  -2  46 NW14G25   30.34R WCI   1
PLATTEVILLE    SUNNY     17   3  55 NW22      30.26R WCI  -1
$$

WIZ056-057-062-063-064-067-068-122200-
SOUTH CENTRAL WISCONSIN

CITY           SKY/WX    TMP DP  RH WIND       PRES   REMARKS
REEDSBURG      SUNNY     14  -5  41 N21G29    30.25R WCI  -3
BARABOO/DELLS  SUNNY     15  -6  38 NW15G26   30.23R WCI  -1
LONE ROCK      SUNNY     18  -2  41 NW17G35   30.28R WCI   3
MINERAL POINT  SUNNY     19   0  42 NW21      30.22R WCI   3
MADISON        MOSUNNY   16  -5  39 N20G30    30.21R WCI  -1
MIDDLETON      SUNNY     18  -1  42 NW21G28   30.22R WCI   2
WATERTOWN      SUNNY     17  -2  43 NW22G33   30.18R WCI  -1
MONROE         MOSUNNY   21   1  42 NW22G29   30.20R WCI   5
JANESVILLE     MOSUNNY   21  -2  35 NW23G36   30.19R WCI   5
$$

WIZ051-052-058>065-066-070>072-122200-
SOUTHEAST WISCONSIN

CITY           SKY/WX    TMP DP  RH WIND       PRES   REMARKS
MILWAUKEE      MOSUNNY   18  -4  37 NW21G38   30.16R WCI   1
WAUKESHA       PTSUNNY   14  -2  48 NW15G29   30.16R WCI  -1
MILWAUKEE/TIMM MOSUNNY   16  -2  45 NW28G37   30.17R WCI  -4
RACINE         MOSUNNY   19  -5  34 NW15G30   30.16R WCI   5
BURLINGTON     MOSUNNY   18  -1  42 NW18G28   30.17R WCI   3
KENOSHA        MOSUNNY   19  -2  39 NW22G38   30.15R WCI   2
FOND DU LAC    CLOUDY    14  -3  47 NW22G32   30.18R WCI  -4
SHEBOYGAN      MOSUNNY   13  -4  46 NW24G32   30.16R WCI  -7
WEST BEND      PTSUNNY   14  -4  44 NW12G28   30.16R WCI   0
JUNEAU         MOSUNNY   14  -2  48 NW15G22   30.19R WCI  -2
$$

LSZ147-162-122200-
LAKE SUPERIOR

STATION/POSITION TIME  TEMP    WIND        PRES    WAVE
                       AIR SEA DIR/SP/G            HT/PER
                 (UTC) (F)     (DEG/KT/KT) (MB)    (FT/S)
DEVILS ISLAND    2100    2     300/ 22/ 27 1031.3R
SAXON HARBOR     2000    2                 1028.1
$$

LMZ867-665-643>646-122200-
LAKE MICHIGAN

STATION/POSITION TIME  TEMP    WIND        PRES    WAVE
                       AIR SEA DIR/SP/G            HT/PER
                 (UTC) (F)     (DEG/KT/KT) (MB)    (FT/S)
CHAMBERS ISLAND  2000   11     310/ 19/ 25 1020.3R
SISTER BAY       2019   11     360/ 28/ 36   N/A
ALGOMA LAKESHORE 1911          320/ 17/ 26   N/A
KEWAUNEE LAKESHO 2000   15     300/ 18/ 25 1019.1R
SHEBOYGAN LAKESH 2100   14     330/ 20/ 25 1023.0R
PORT WASHINGTON  2040   16     320/ 14/ 23 1022.4R
MILWAUKEE LAKESH 2010   18     310/ 14/ 17   N/A
KENOSHA   LAKESH 2100   19     300/ 19/ 25 1021.3R
$$

TC  - TEMPERATURE IN CELSIUS
VSB - VISIBILITY IN STATUTE MILES
WCI - WIND CHILL INDEX
HX  - HEAT INDEX




USA.gov is the U.S. government's official web portal to all federal, state and local government web resources and services.